Find Starlink 3726

NORAD ID: 52122 Int'l Des: 2022-029 Owner: SPXS Country: US Constellation: starlink operational
LEOCIRCULAR

Live-Position

3D-Globus wird geladen...

Über Starlink 3726

Beschreibung wird geladen...

Nächste Überflüge

Passes for default location (London). Set your location on the main map for personalized predictions.

Höhenverlauf

Loading altitude history...

Zweizeiliger Elementsatz

1 52122U 22029AL 26106.74385331 .00001489 00000-0 11159-3 0 9998
2 52122 53.2171 268.2895 0001080 69.8680 290.2428 15.08849624226531
Epoch: 16. Apr. 2026 • Age: 15 hours

Aktueller Status

Höhe 558.3 km
Geschwindigkeit 7.58 km/s
Subsatellitenpunkt -51.59°S, 170.11°E
Startdatum 19. März 2022
Alter 4 years
Typ internet

Technische Details

Klassifizierung Payload
Masse 297.00 kg
Trockenmasse 275.00 kg
Gesamtmasse 297.00 kg
Länge 0.20 m
Durchmesser 2.80 m
Spannweite 9.00 m
Form Box + pan
Hersteller SPXS
Bus-Typ Starlink
Phasenstatus In Orbit
Besitzer/Staat SPXS/US

Most Searched